Вернуться в каталог

STARLINK-11575

АктивенСвязьVLEO
NORAD 63308·PAYLOAD·🇺🇸 United States

Запущен Mar 18, 2025 с Cape Canaveral Space Force Station

Loading…

Ближайшие Пролёты (ближайшие 24 часа)

TLE

СвежийSource: CelesTrak SupGP

Эпоха: Sep 14, 2026, 20:56 UTC

1 63308C 25057B   26257.87270833  .00064869  00000+0  50398-3 0  2576
2 63308  43.0006 204.2402 0001460 259.8759 355.3546 15.70800036    17

Отслеживайте STARLINK-11575 в реальном времени с AllMySat

Download on the App Store